Home > Time Zones > World Clock > Weather > Peru > Lima > Past weeks

Flag for Peru Weather past 2 weeks in Lima, Lima, Peru

Now
68 °F

Low clouds.


Feels Like: 68 °F
Forecast: N/A
Wind: 7 mph from Northwest

Location: Lima-Callao / Aerop. Internacional Jorgechavez


UV Index: N/A

Visibility: 4 mi


Pressure: 29.86 "Hg

Humidity: 83%

Dew point: 63 °F

Location of LimaLocation

Historic Weather in Lima

°F

Lima temperature yesterday

Maximum temperature yesterday: 73 °F (at 10:00 AM)
Minimum temperature yesterday: 63 °F (at 5:00 AM)
Average temperature yesterday: 68 °F

Past Weeks' High & Low Weather Summary

 TemperatureHumidityPressure
High77 °F (Apr 5, 2:00 PM)100% (Apr 9, 6:00 AM)30.01 "Hg (Apr 9, 6:00 AM)
Low63 °F (Apr 7, 6:00 AM)61% (Apr 5, 2:00 PM)29.77 "Hg (Apr 18, 4:00 PM)
Average67 °F85%29.89 "Hg
* Reported Apr 4 2:00 PM — Apr 19 2:00 PM, Lima, Weather by CustomWeather, © 2014

Note: Actual official high and low records may vary slightly from our data, if they occured in-between our weather recording intervals... More about our weather records

Advertising

Historic Weather Conditions — Data for Previous 24 hours

 ConditionsComfort  
Time TempWeatherWind HumidityBarometerVisibility
2:00 PM
Apr 19
68 °FLow clouds.8 mph83%29.86 "HgN/A
1:00 PM68 °FLow clouds.8 mph83%29.89 "Hg5 mi
12:00 PM66 °FFog.8 mph88%29.89 "Hg4 mi
11:00 AM66 °FFog.7 mph88%29.89 "Hg3 mi
10:00 AM66 °FFog.6 mph88%29.92 "Hg2 mi
9:00 AM68 °FFog.6 mph88%29.89 "Hg2 mi
8:00 AM66 °FFog.3 mph88%29.89 "Hg2 mi
7:00 AM64 °FFog.5 mph94%29.86 "Hg3 mi
6:00 AM63 °FPassing clouds.5 mph94%29.83 "Hg4 mi
5:00 AM63 °FPassing clouds.1 mph94%29.83 "Hg4 mi
4:00 AM63 °FPassing clouds.1 mph94%29.83 "Hg4 mi
3:00 AM64 °FPassing clouds.6 mph88%29.83 "Hg5 mi
2:00 AM64 °FPassing clouds.3 mph94%29.83 "HgN/A
1:00 AM66 °FClear.3 mph88%29.86 "Hg10 mi
12:00 AM66 °FPassing clouds.3 mph88%29.86 "HgN/A
11:00 PM
Apr 18
66 °FClear.3 mph88%29.89 "Hg10 mi
10:00 PM66 °FClear.7 mph88%29.89 "Hg10 mi
9:00 PM68 °FClear.8 mph88%29.86 "Hg10 mi
8:00 PM68 °FClear.7 mph88%29.83 "Hg10 mi
7:00 PM68 °FClear.7 mph83%29.80 "Hg10 mi
6:00 PM70 °FSunny.10 mph83%29.80 "Hg10 mi
5:00 PM70 °FSunny.12 mph83%29.77 "Hg10 mi
4:00 PM72 °FSunny.9 mph78%29.77 "Hg10 mi
3:00 PM73 °FSunny.9 mph74%29.80 "Hg10 mi
Weather by CustomWeather, © 2014

See weather overview